| time (UTC) | temp C | wind direction | speed KPH | gust KPH | rain 1hr cm | rain 24hr cm | rain mn cm | humidity % | barometer mb |
| 20260504024610 | 10 | 260 | 0.0 | 0.0 | 0.00 | 0.00 | 0.00 | 88 | 1017.3 |
| 20260504024107 | 10 | 260 | 0.0 | 0.0 | 0.00 | 0.00 | 0.00 | 88 | 1017.2 |
| 20260504023603 | 10 | 260 | 0.0 | 0.0 | 0.00 | 0.00 | 0.00 | 88 | 1017.0 |
| 20260504023059 | 10 | 259 | 0.0 | 0.0 | 0.00 | 0.00 | 0.00 | 87 | 1017.1 |
| 20260504022555 | 10 | 259 | 0.0 | 0.0 | 0.00 | 0.00 | 0.00 | 86 | 1017.1 |
| 20260504022052 | 10 | 260 | 0.0 | 0.0 | 0.00 | 0.00 | 0.00 | 86 | 1017.0 |
| 20260504021549 | 10 | 260 | 0.0 | 0.0 | 0.00 | 0.00 | 0.00 | 86 | 1016.9 |
| 20260504021046 | 11 | 260 | 0.0 | 0.0 | 0.00 | 0.00 | 0.00 | 86 | 1017.0 |
| 20260504020543 | 11 | 260 | 0.0 | 0.0 | 0.00 | 0.00 | 0.00 | 86 | 1016.9 |
| 20260504020039 | 11 | 261 | 0.0 | 0.0 | 0.00 | 0.00 | 0.00 | 85 | 1016.8 |
| 20260504015536 | 11 | 263 | 0.0 | 0.0 | 0.00 | 0.00 | 0.00 | 83 | 1016.7 |
| 20260504015026 | 11 | 254 | 0.0 | 0.0 | 0.00 | 0.00 | 0.00 | 82 | 1016.6 |
| 20260504014522 | 11 | 253 | 0.0 | 0.0 | 0.00 | 0.00 | 0.00 | 81 | 1016.6 |
| 20260504014019 | 12 | 260 | 0.0 | 0.0 | 0.00 | 0.00 | 0.00 | 81 | 1016.7 |
| 20260504013517 | 12 | 261 | 0.0 | 0.0 | 0.00 | 0.00 | 0.00 | 78 | 1016.7 |
| 20260504013014 | 12 | 261 | 0.0 | 0.0 | 0.00 | 0.00 | 0.00 | 77 | 1016.6 |
| 20260504012511 | 12 | 267 | 0.0 | 0.0 | 0.00 | 0.00 | 0.00 | 75 | 1016.7 |
| 20260504012009 | 12 | 273 | 0.0 | 1.6 | 0.00 | 0.00 | 0.00 | 75 | 1016.7 |
| 20260504011505 | 12 | 256 | 0.0 | 0.0 | 0.00 | 0.00 | 0.00 | 76 | 1016.7 |
| 20260504011001 | 13 | 257 | 0.0 | 0.0 | 0.00 | 0.00 | 0.00 | 71 | 1016.4 |
| 20260504010458 | 14 | 293 | 0.0 | 0.0 | 0.00 | 0.00 | 0.00 | 66 | 1016.6 |
| 20260504005953 | 14 | 133 | 1.6 | 1.6 | 0.00 | 0.00 | 0.00 | 66 | 1016.3 |
| 20260504005450 | 13 | 264 | 0.0 | 0.0 | 0.00 | 0.00 | 0.00 | 69 | 1016.3 |
| 20260504004948 | 13 | 262 | 0.0 | 0.0 | 0.00 | 0.00 | 0.00 | 70 | 1016.3 |
| 20260504004445 | 13 | 262 | 0.0 | 0.0 | 0.00 | 0.00 | 0.00 | 70 | 1016.2 |
| 20260504003942 | 14 | 262 | 0.0 | 0.0 | 0.00 | 0.00 | 0.00 | 68 | 1016.3 |
| 20260504003438 | 15 | 262 | 0.0 | 0.0 | 0.00 | 0.00 | 0.00 | 67 | 1016.4 |
| 20260504002935 | 15 | 263 | 0.0 | 0.0 | 0.00 | 0.00 | 0.00 | 66 | 1016.2 |
| 20260504002432 | 15 | 263 | 0.0 | 0.0 | 0.00 | 0.00 | 0.00 | 65 | 1016.3 |
| 20260504001930 | 16 | 262 | 0.0 | 0.0 | 0.00 | 0.00 | 0.00 | 62 | 1016.1 |
| 20260504001427 | 17 | 267 | 0.0 | 0.0 | 0.00 | 0.00 | 0.00 | 59 | 1016.2 |
| 20260504000924 | 18 | 254 | 0.0 | 1.6 | 0.00 | 0.00 | 0.00 | 54 | 1016.3 |
| 20260504000423 | 18 | 216 | 3.2 | 3.2 | 0.00 | 0.00 | 0.00 | 48 | 1016.1 |
| 20260503235918 | 18 | 228 | 3.2 | 3.2 | 0.00 | 0.00 | 0.00 | 47 | 1016.4 |
| 20260503235416 | 18 | 232 | 3.2 | 3.2 | 0.00 | 0.00 | 0.00 | 46 | 1016.4 |
| 20260503234913 | 19 | 192 | 3.2 | 3.2 | 0.00 | 0.00 | 0.00 | 46 | 1016.4 |
| 20260503234411 | 19 | 192 | 3.2 | 3.2 | 0.00 | 0.00 | 0.00 | 45 | 1016.5 |
| 20260503233908 | 20 | 232 | 4.8 | 4.8 | 0.00 | 0.00 | 0.00 | 44 | 1016.3 |
| 20260503233405 | 20 | 225 | 3.2 | 3.2 | 0.00 | 0.00 | 0.00 | 43 | 1016.4 |
| 20260503232901 | 20 | 219 | 4.8 | 4.8 | 0.00 | 0.00 | 0.00 | 43 | 1016.5 |
| 20260503232358 | 20 | 228 | 6.4 | 6.4 | 0.00 | 0.00 | 0.00 | 42 | 1016.8 |
| 20260503231856 | 20 | 236 | 4.8 | 4.8 | 0.00 | 0.00 | 0.00 | 43 | 1016.4 |
| 20260503231353 | 20 | 219 | 3.2 | 4.8 | 0.00 | 0.00 | 0.00 | 42 | 1016.4 |
| 20260503230849 | 20 | 229 | 3.2 | 3.2 | 0.00 | 0.00 | 0.00 | 42 | 1016.5 |
| 20260503230346 | 20 | 238 | 4.8 | 6.4 | 0.00 | 0.00 | 0.00 | 41 | 1016.6 |
| 20260503225844 | 20 | 235 | 8.0 | 9.7 | 0.00 | 0.00 | 0.00 | 41 | 1016.7 |
| 20260503225339 | 20 | 182 | 3.2 | 3.2 | 0.00 | 0.00 | 0.00 | 39 | 1016.7 |
| 20260503224836 | 20 | 254 | 1.6 | 1.6 | 0.00 | 0.00 | 0.00 | 40 | 1016.5 |
| 20260503224333 | 20 | 224 | 4.8 | 4.8 | 0.00 | 0.00 | 0.00 | 40 | 1016.4 |
| 20260503223831 | 20 | 239 | 6.4 | 9.7 | 0.00 | 0.00 | 0.00 | 39 | 1016.5 |
| 20260503223328 | 20 | 229 | 4.8 | 4.8 | 0.00 | 0.00 | 0.00 | 39 | 1016.3 |
| 20260503222824 | 20 | 220 | 9.7 | 11.3 | 0.00 | 0.00 | 0.00 | 39 | 1016.5 |
| 20260503222323 | 20 | 238 | 9.7 | 12.9 | 0.00 | 0.00 | 0.00 | 39 | 1016.4 |
| 20260503221821 | 21 | 205 | 6.4 | 6.4 | 0.00 | 0.00 | 0.00 | 38 | 1016.3 |
| 20260503221319 | 20 | 274 | 6.4 | 9.7 | 0.00 | 0.00 | 0.00 | 41 | 1016.5 |
| 20260503220814 | 21 | 246 | 0.0 | 0.0 | 0.00 | 0.00 | 0.00 | 39 | 1016.3 |
| 20260503220311 | 20 | 229 | 6.4 | 6.4 | 0.00 | 0.00 | 0.00 | 38 | 1016.4 |
| 20260503215803 | 20 | 312 | 6.4 | 6.4 | 0.00 | 0.00 | 0.00 | 39 | 1016.3 |
| 20260503215300 | 20 | 295 | 6.4 | 9.7 | 0.00 | 0.00 | 0.00 | 39 | 1016.3 |
| 20260503214758 | 20 | 208 | 6.4 | 6.4 | 0.00 | 0.00 | 0.00 | 40 | 1016.3 |
| 20260503214255 | 20 | 232 | 6.4 | 9.7 | 0.00 | 0.00 | 0.00 | 39 | 1016.4 |
| 20260503213752 | 20 | 289 | 3.2 | 4.8 | 0.00 | 0.00 | 0.00 | 40 | 1016.4 |
| 20260503213249 | 20 | 232 | 4.8 | 6.4 | 0.00 | 0.00 | 0.00 | 39 | 1016.4 |
| 20260503212745 | 20 | 208 | 11.3 | 14.5 | 0.00 | 0.00 | 0.00 | 40 | 1016.6 |
| 20260503212243 | 20 | 265 | 8.0 | 9.7 | 0.00 | 0.00 | 0.00 | 41 | 1016.6 |
| 20260503211741 | 20 | 267 | 4.8 | 4.8 | 0.00 | 0.00 | 0.00 | 41 | 1016.6 |
| 20260503211237 | 20 | 252 | 6.4 | 9.7 | 0.00 | 0.00 | 0.00 | 39 | 1016.7 |
| 20260503210732 | 20 | 243 | 6.4 | 6.4 | 0.00 | 0.00 | 0.00 | 41 | 1016.7 |
| 20260503210230 | 20 | 242 | 6.4 | 6.4 | 0.00 | 0.00 | 0.00 | 40 | 1016.5 |
| 20260503205725 | 20 | 252 | 4.8 | 4.8 | 0.00 | 0.00 | 0.00 | 41 | 1016.6 |
| 20260503205221 | 20 | 242 | 9.7 | 9.7 | 0.00 | 0.00 | 0.00 | 37 | 1016.7 |
| 20260503204719 | 20 | 244 | 3.2 | 3.2 | 0.00 | 0.00 | 0.00 | 39 | 1016.7 |
| 20260503204217 | 20 | 237 | 4.8 | 6.4 | 0.00 | 0.00 | 0.00 | 40 | 1016.8 |
| 20260503203713 | 20 | 255 | 3.2 | 4.8 | 0.00 | 0.00 | 0.00 | 41 | 1016.7 |
| 20260503203211 | 20 | 312 | 8.0 | 9.7 | 0.00 | 0.00 | 0.00 | 42 | 1017.0 |
| 20260503202708 | 20 | 277 | 8.0 | 9.7 | 0.00 | 0.00 | 0.00 | 42 | 1017.0 |
| 20260503202206 | 19 | 285 | 4.8 | 4.8 | 0.00 | 0.00 | 0.00 | 40 | 1017.2 |
| 20260503201704 | 19 | 273 | 9.7 | 11.3 | 0.00 | 0.00 | 0.00 | 42 | 1017.3 |
| 20260503201201 | 20 | 283 | 12.9 | 20.9 | 0.00 | 0.00 | 0.00 | 41 | 1017.2 |
| 20260503200657 | 19 | 247 | 0.0 | 0.0 | 0.00 | 0.00 | 0.00 | 41 | 1017.5 |
| 20260503200154 | 20 | 218 | 4.8 | 4.8 | 0.00 | 0.00 | 0.00 | 41 | 1017.5 |
| 20260503195650 | 20 | 209 | 8.0 | 9.7 | 0.00 | 0.00 | 0.00 | 42 | 1017.7 |
| 20260503195148 | 20 | 235 | 8.0 | 9.7 | 0.00 | 0.00 | 0.00 | 40 | 1017.7 |
| 20260503194644 | 20 | 288 | 6.4 | 6.4 | 0.00 | 0.00 | 0.00 | 42 | 1017.6 |
| 20260503194139 | 19 | 251 | 14.5 | 17.7 | 0.00 | 0.00 | 0.00 | 41 | 1017.8 |
| 20260503193636 | 20 | 281 | 9.7 | 11.3 | 0.00 | 0.00 | 0.00 | 43 | 1017.8 |
| 20260503193132 | 20 | 275 | 6.4 | 6.4 | 0.00 | 0.00 | 0.00 | 43 | 1018.0 |
| 20260503192622 | 19 | 252 | 4.8 | 4.8 | 0.00 | 0.00 | 0.00 | 42 | 1018.2 |
| 20260503192118 | 19 | 183 | 6.4 | 9.7 | 0.00 | 0.00 | 0.00 | 42 | 1018.4 |
| 20260503191615 | 19 | 221 | 11.3 | 14.5 | 0.00 | 0.00 | 0.00 | 41 | 1018.6 |
| 20260503191111 | 19 | 240 | 12.9 | 16.1 | 0.00 | 0.00 | 0.00 | 41 | 1018.5 |
| 20260503190609 | 19 | 227 | 8.0 | 9.7 | 0.00 | 0.00 | 0.00 | 41 | 1018.5 |
| 20260503190106 | 20 | 246 | 11.3 | 14.5 | 0.00 | 0.00 | 0.00 | 41 | 1018.5 |
| 20260503185603 | 19 | 259 | 4.8 | 6.4 | 0.00 | 0.00 | 0.00 | 41 | 1018.6 |
| 20260503185102 | 19 | 245 | 11.3 | 14.5 | 0.00 | 0.00 | 0.00 | 42 | 1018.7 |
| 20260503184557 | 18 | 216 | 8.0 | 11.3 | 0.00 | 0.00 | 0.00 | 44 | 1018.6 |
| 20260503184055 | 18 | 221 | 4.8 | 9.7 | 0.00 | 0.00 | 0.00 | 44 | 1018.9 |
| 20260503183551 | 18 | 201 | 4.8 | 6.4 | 0.00 | 0.00 | 0.00 | 42 | 1018.8 |
| 20260503183049 | 18 | 207 | 8.0 | 11.3 | 0.00 | 0.00 | 0.00 | 43 | 1018.8 |
| 20260503182547 | 18 | 251 | 11.3 | 12.9 | 0.00 | 0.00 | 0.00 | 42 | 1018.9 |
| 20260503182045 | 18 | 234 | 3.2 | 3.2 | 0.00 | 0.00 | 0.00 | 43 | 1019.0 |
| 20260503181541 | 18 | 221 | 9.7 | 11.3 | 0.00 | 0.00 | 0.00 | 43 | 1018.9 |
| 20260503181038 | 18 | 245 | 16.1 | 17.7 | 0.00 | 0.00 | 0.00 | 42 | 1019.0 |
| 20260503180535 | 18 | 244 | 9.7 | 12.9 | 0.00 | 0.00 | 0.00 | 44 | 1018.9 |
| 20260503180032 | 18 | 248 | 8.0 | 12.9 | 0.00 | 0.00 | 0.00 | 42 | 1019.0 |
| 20260503175524 | 18 | 224 | 8.0 | 9.7 | 0.00 | 0.00 | 0.00 | 41 | 1019.0 |
| 20260503175021 | 18 | 224 | 1.6 | 1.6 | 0.00 | 0.00 | 0.00 | 42 | 1019.0 |
| 20260503174519 | 18 | 114 | 4.8 | 4.8 | 0.00 | 0.00 | 0.00 | 43 | 1019.2 |
| 20260503174014 | 17 | 243 | 3.2 | 3.2 | 0.00 | 0.00 | 0.00 | 43 | 1019.1 |
| 20260503173510 | 18 | 276 | 8.0 | 9.7 | 0.00 | 0.00 | 0.00 | 43 | 1019.1 |
| 20260503173006 | 17 | 159 | 3.2 | 3.2 | 0.00 | 0.00 | 0.00 | 43 | 1019.1 |
| 20260503172504 | 17 | 285 | 6.4 | 6.4 | 0.00 | 0.00 | 0.00 | 46 | 1019.3 |
| 20260503172000 | 17 | 278 | 1.6 | 3.2 | 0.00 | 0.00 | 0.00 | 45 | 1019.4 |
| 20260503171456 | 18 | 305 | 3.2 | 4.8 | 0.00 | 0.00 | 0.00 | 42 | 1019.5 |
| 20260503170954 | 17 | 233 | 0.0 | 1.6 | 0.00 | 0.00 | 0.00 | 43 | 1019.7 |
| 20260503170450 | 18 | 60 | 6.4 | 6.4 | 0.00 | 0.00 | 0.00 | 45 | 1019.6 |
| 20260503150842 | 15 | 246 | 1.6 | 1.6 | 0.00 | 0.00 | 0.00 | 49 | 1020.4 |
| 20260503150338 | 15 | 252 | 0.0 | 0.0 | 0.00 | 0.00 | 0.00 | 52 | 1020.4 |
| 20260503140303 | 14 | 341 | 4.8 | 4.8 | 0.00 | 0.00 | 0.00 | 58 | 1020.0 |
| 20260503131232 | 12 | 253 | 1.6 | 1.6 | 0.00 | 0.00 | 0.00 | 66 | 1020.0 |
| 20260503130730 | 12 | 142 | 1.6 | 3.2 | 0.00 | 0.00 | 0.00 | 64 | 1020.1 |
| 20260503130227 | 12 | 40 | 8.0 | 11.3 | 0.00 | 0.00 | 0.00 | 65 | 1019.9 |
| 20260503120153 | 7 | 272 | 0.0 | 0.0 | 0.00 | 0.00 | 0.00 | 99 | 1019.6 |
| 20260503110620 | 4 | 265 | 0.0 | 0.0 | 0.00 | 0.00 | 0.00 | 99 | 1019.0 |
| 20260503110118 | 3 | 268 | 0.0 | 0.0 | 0.00 | 0.00 | 0.00 | 99 | 1019.0 |
| 20260503090508 | 5 | 267 | 0.0 | 0.0 | 0.00 | 0.00 | 0.00 | 99 | 1017.3 |
| 20260503081433 | 5 | 270 | 0.0 | 0.0 | 0.00 | 0.00 | 0.00 | 99 | 1017.2 |
| 20260503080931 | 6 | 270 | 0.0 | 0.0 | 0.00 | 0.00 | 0.00 | 99 | 1017.1 |
| 20260503080427 | 6 | 270 | 0.0 | 0.0 | 0.00 | 0.00 | 0.00 | 99 | 1016.9 |
| 20260503072904 | 6 | 271 | 0.0 | 0.0 | 0.00 | 0.00 | 0.00 | 99 | 1016.7 |
| 20260503072401 | 6 | 271 | 0.0 | 0.0 | 0.00 | 0.00 | 0.00 | 99 | 1016.6 |
| 20260503071858 | 6 | 272 | 0.0 | 0.0 | 0.00 | 0.00 | 0.00 | 99 | 1016.6 |
| 20260503071355 | 6 | 263 | 0.0 | 0.0 | 0.00 | 0.00 | 0.00 | 99 | 1016.4 |
| 20260503070850 | 6 | 261 | 0.0 | 0.0 | 0.00 | 0.00 | 0.00 | 99 | 1016.5 |
| 20260503070349 | 6 | 261 | 0.0 | 0.0 | 0.00 | 0.00 | 0.00 | 99 | 1016.3 |
| 20260503060308 | 8 | 256 | 0.0 | 0.0 | 0.00 | 0.00 | 0.00 | 98 | 1016.1 |
| 20260503054755 | 8 | 256 | 0.0 | 0.0 | 0.00 | 0.00 | 0.00 | 98 | 1016.3 |
| 20260503054251 | 8 | 256 | 0.0 | 0.0 | 0.00 | 0.00 | 0.00 | 98 | 1016.4 |
| 20260503053749 | 8 | 256 | 0.0 | 0.0 | 0.00 | 0.00 | 0.00 | 98 | 1016.3 |
| 20260503053243 | 8 | 256 | 0.0 | 0.0 | 0.00 | 0.00 | 0.00 | 98 | 1016.4 |
| 20260503052738 | 8 | 256 | 0.0 | 0.0 | 0.00 | 0.00 | 0.00 | 98 | 1016.5 |
| 20260503052235 | 8 | 256 | 0.0 | 0.0 | 0.00 | 0.00 | 0.00 | 98 | 1016.4 |
| 20260503051730 | 8 | 257 | 0.0 | 0.0 | 0.00 | 0.00 | 0.00 | 98 | 1016.4 |
| 20260503051228 | 8 | 271 | 0.0 | 0.0 | 0.00 | 0.00 | 0.00 | 97 | 1016.4 |
| 20260503050724 | 8 | 257 | 0.0 | 0.0 | 0.00 | 0.00 | 0.00 | 97 | 1016.5 |
| 20260503050220 | 8 | 257 | 0.0 | 0.0 | 0.00 | 0.00 | 0.00 | 97 | 1016.5 |
| 20260503045718 | 9 | 256 | 0.0 | 0.0 | 0.00 | 0.00 | 0.00 | 97 | 1016.5 |
| 20260503045216 | 9 | 256 | 0.0 | 0.0 | 0.00 | 0.00 | 0.00 | 97 | 1016.1 |
| 20260503044712 | 9 | 256 | 0.0 | 0.0 | 0.00 | 0.00 | 0.00 | 97 | 1016.2 |
| 20260503044210 | 9 | 257 | 0.0 | 0.0 | 0.00 | 0.00 | 0.00 | 97 | 1016.3 |
| 20260503043706 | 10 | 257 | 0.0 | 0.0 | 0.00 | 0.00 | 0.00 | 97 | 1016.2 |
| 20260503043204 | 10 | 257 | 0.0 | 0.0 | 0.00 | 0.00 | 0.00 | 96 | 1016.0 |
| 20260503042659 | 10 | 248 | 0.0 | 0.0 | 0.00 | 0.00 | 0.00 | 96 | 1016.1 |
| 20260503042156 | 10 | 248 | 0.0 | 0.0 | 0.00 | 0.00 | 0.00 | 96 | 1016.0 |
| 20260503041652 | 10 | 248 | 0.0 | 0.0 | 0.00 | 0.00 | 0.00 | 95 | 1016.1 |
| 20260503041150 | 10 | 247 | 0.0 | 0.0 | 0.00 | 0.00 | 0.00 | 95 | 1015.9 |
| 20260503040647 | 10 | 247 | 0.0 | 0.0 | 0.00 | 0.00 | 0.00 | 95 | 1016.0 |
| 20260503040140 | 11 | 247 | 0.0 | 0.0 | 0.00 | 0.00 | 0.00 | 95 | 1015.9 |
| 20260503035636 | 11 | 246 | 0.0 | 0.0 | 0.00 | 0.03 | 0.03 | 94 | 1015.7 |
| 20260503035133 | 11 | 230 | 1.6 | 1.6 | 0.00 | 0.03 | 0.03 | 94 | 1015.8 |
| 20260503034625 | 11 | 234 | 1.6 | 1.6 | 0.00 | 0.03 | 0.03 | 94 | 1015.6 |
| 20260503034122 | 11 | 240 | 1.6 | 3.2 | 0.00 | 0.03 | 0.03 | 93 | 1015.7 |
| 20260503033619 | 11 | 230 | 3.2 | 3.2 | 0.00 | 0.03 | 0.03 | 93 | 1015.6 |
| 20260503033116 | 11 | 222 | 1.6 | 1.6 | 0.00 | 0.03 | 0.03 | 93 | 1015.7 |
| 20260503032614 | 11 | 238 | 0.0 | 0.0 | 0.00 | 0.03 | 0.03 | 93 | 1015.5 |
| 20260503032112 | 11 | 244 | 0.0 | 0.0 | 0.00 | 0.03 | 0.03 | 92 | 1015.7 |
| 20260503031610 | 11 | 234 | 0.0 | 0.0 | 0.00 | 0.03 | 0.03 | 92 | 1015.8 |
| 20260503031102 | 12 | 229 | 0.0 | 0.0 | 0.00 | 0.03 | 0.03 | 92 | 1015.5 |
| 20260503030558 | 12 | 232 | 0.0 | 0.0 | 0.00 | 0.03 | 0.03 | 92 | 1015.6 |
| 20260503030055 | 12 | 236 | 1.6 | 1.6 | 0.00 | 0.03 | 0.03 | 91 | 1015.6 |
| 20260503025551 | 12 | 236 | 0.0 | 0.0 | 0.00 | 0.03 | 0.03 | 91 | 1015.6 |
| 20260503025049 | 12 | 231 | 3.2 | 3.2 | 0.00 | 0.03 | 0.03 | 92 | 1015.6 |